Weather History for Lancaster, SC

Change the Weather History Date:

Monday, November 19, 2012

  Actual Average (KUZA) Record (KUZA)
Temperature  
Mean Temperature 54 °F -  
Max Temperature 64 °F 64 °F 77 °F (1963)
Min Temperature 44 °F 41 °F 16 °F (2014)
Degree Days  
Heating Degree Days 11    
Growing Degree Days 4 (Base 50)    
Moisture  
Dew Point 46 °F    
Average Humidity 76    
Maximum Humidity 100    
Minimum Humidity 55    
Precipitation  
Precipitation 0.00 in - - ()
Sea Level Pressure  
Sea Level Pressure 30.25 in    
Wind  
Wind Speed 9 mph (NNE)    
Max Wind Speed 15 mph    
Max Gust Speed 22 mph    
Visibility 10 miles    
Events      
Averages and records for this station are not official NWS values.
T = Trace of Precipitation, MM = Missing Value Source: NWS Daily Summary

Daily Weather History Graph

Daily Weather History Graph

Search for Another Location

Airport:

Trip Planner

Search our weather history database for the weather conditions in past years. The results will help you decide how hot, cold, wet, or windy it might be!

Date:

Astronomy

Nov. 19, 2012 Rise Set
Actual Time 7:01 AM EST 5:15 PM EST
Civil Twilight 6:34 AM EST 5:42 PM EST
Nautical Twilight 6:03 AM EST 6:13 PM EST
Astronomical Twilight 5:33 AM EST 6:43 PM EST
Moon 12:08 PM EST 11:34 PM EST
Length of Visible Light 11h 08m
Length of Day
10h 14m
Waxing Crescent, 40% of the Moon is Illuminated
Nov 19
Waxing Crescent
Nov 20
First Quarter
Nov 28
Full
Dec 6
Last Quarter
Dec 13
New

Hourly Weather History & Observations

Time (EST) Temp. Windchill Dew Point Humidity Pressure Visibility Wind Dir Wind Speed Gust Speed Precip Events Conditions
12:15 AM 51.8 °F - 44.6 °F 76% 30.32 in 10.0 mi North 8.1 mph - N/A   Overcast
12:35 AM 51.8 °F - 44.6 °F 76% 30.31 in 10.0 mi North 9.2 mph - N/A   Overcast
12:55 AM 51.8 °F - 42.8 °F 71% 30.31 in 10.0 mi NNE 11.5 mph 17.3 mph N/A   Overcast
1:15 AM 51.8 °F - 42.8 °F 71% 30.30 in 10.0 mi NNE 9.2 mph - N/A   Mostly Cloudy
1:35 AM 51.8 °F - 42.8 °F 71% 30.30 in 10.0 mi NNE 11.5 mph - N/A   Mostly Cloudy
1:55 AM 51.8 °F - 41.0 °F 67% 30.29 in 10.0 mi NNE 11.5 mph 16.1 mph N/A   Mostly Cloudy
2:15 AM 51.8 °F - 42.8 °F 71% 30.30 in 10.0 mi NNE 9.2 mph 18.4 mph N/A   Mostly Cloudy
2:35 AM 50.0 °F - 42.8 °F 76% 30.29 in 10.0 mi North 10.4 mph - N/A   Overcast
2:55 AM 51.8 °F - 42.8 °F 71% 30.29 in 10.0 mi NNE 11.5 mph 18.4 mph N/A   Overcast
3:15 AM 50.0 °F - 41.0 °F 71% 30.28 in 10.0 mi NNE 11.5 mph 17.3 mph N/A   Mostly Cloudy
3:35 AM 50.0 °F - 42.8 °F 76% 30.28 in 10.0 mi NNE 9.2 mph 17.3 mph N/A   Overcast
3:55 AM 51.8 °F - 42.8 °F 71% 30.28 in 10.0 mi North 10.4 mph - N/A   Overcast
4:15 AM 51.8 °F - 42.8 °F 71% 30.28 in 10.0 mi North 9.2 mph 17.3 mph N/A   Overcast
4:35 AM 51.8 °F - 42.8 °F 71% 30.27 in 10.0 mi North 10.4 mph - N/A   Overcast
4:55 AM 50.0 °F - 42.8 °F 76% 30.28 in 10.0 mi North 11.5 mph - N/A   Overcast
5:15 AM 50.0 °F - 42.8 °F 76% 30.29 in 10.0 mi North 10.4 mph - N/A   Overcast
5:35 AM 50.0 °F - 42.8 °F 76% 30.29 in 10.0 mi North 9.2 mph - N/A   Overcast
5:55 AM 50.0 °F - 41.0 °F 71% 30.29 in 10.0 mi North 12.7 mph 18.4 mph N/A   Overcast
6:15 AM 50.0 °F - 42.8 °F 76% 30.29 in 10.0 mi NNE 10.4 mph - N/A   Overcast
6:35 AM 50.0 °F - 42.8 °F 76% 30.29 in 10.0 mi NNE 11.5 mph 19.6 mph N/A   Overcast
6:55 AM 50.0 °F - 42.8 °F 76% 30.29 in 10.0 mi NNE 10.4 mph 18.4 mph N/A   Overcast
7:15 AM 50.0 °F - 42.8 °F 76% 30.29 in 10.0 mi NNE 12.7 mph 17.3 mph N/A   Overcast
7:35 AM 50.0 °F - 42.8 °F 76% 30.29 in 10.0 mi NNE 10.4 mph 19.6 mph N/A   Overcast
7:55 AM 50.0 °F - 42.8 °F 76% 30.29 in 10.0 mi NNE 10.4 mph - N/A   Overcast
8:15 AM 51.8 °F - 44.6 °F 76% 30.30 in 10.0 mi NNE 10.4 mph - N/A   Overcast
8:35 AM 51.8 °F - 44.6 °F 76% 30.30 in 10.0 mi North 13.8 mph 18.4 mph N/A   Overcast
8:55 AM 53.6 °F - 44.6 °F 72% 30.30 in 10.0 mi NNE 12.7 mph - N/A   Overcast
9:15 AM 53.6 °F - 44.6 °F 72% 30.30 in 10.0 mi NNE 9.2 mph - N/A   Overcast
9:55 AM 55.4 °F - 46.4 °F 72% 30.30 in 10.0 mi NNE 12.7 mph 18.4 mph N/A   Overcast
10:15 AM 55.4 °F - 46.4 °F 72% 30.30 in 10.0 mi NE 8.1 mph - N/A   Mostly Cloudy
10:55 AM 57.2 °F - 48.2 °F 72% 30.30 in 10.0 mi NNE 15.0 mph 19.6 mph N/A   Overcast
11:15 AM 57.2 °F - 48.2 °F 72% 30.29 in 10.0 mi NNE 10.4 mph 20.7 mph N/A   Overcast
11:35 AM 59.0 °F - 48.2 °F 67% 30.29 in 10.0 mi NNE 10.4 mph - N/A   Overcast
11:55 AM 60.8 °F - 48.2 °F 63% 30.27 in 10.0 mi NE 12.7 mph 19.6 mph N/A   Mostly Cloudy
12:15 PM 59.0 °F - 48.2 °F 67% 30.26 in 10.0 mi NNE 15.0 mph 21.9 mph N/A   Partly Cloudy
12:35 PM 60.8 °F - 48.2 °F 63% 30.24 in 10.0 mi NE 10.4 mph 19.6 mph N/A   Clear
12:55 PM 62.6 °F - 48.2 °F 59% 30.23 in 10.0 mi NNE 10.4 mph - N/A   Partly Cloudy
1:15 PM 64.4 °F - 48.2 °F 56% 30.23 in 10.0 mi NNE 10.4 mph - N/A   Partly Cloudy
1:35 PM 64.4 °F - 48.2 °F 56% 30.22 in 10.0 mi NNE 9.2 mph - N/A   Scattered Clouds
1:55 PM 62.6 °F - 48.2 °F 59% 30.22 in 10.0 mi North 10.4 mph - N/A   Mostly Cloudy
2:15 PM 62.6 °F - 48.2 °F 59% 30.22 in 10.0 mi North 8.1 mph - N/A   Mostly Cloudy
2:35 PM 62.6 °F - 48.2 °F 59% 30.22 in 10.0 mi North 10.4 mph - N/A   Mostly Cloudy
2:55 PM 62.6 °F - 48.2 °F 59% 30.21 in 10.0 mi NNE 6.9 mph - N/A   Overcast
3:15 PM 62.6 °F - 48.2 °F 59% 30.20 in 10.0 mi NNE 10.4 mph - N/A   Overcast
3:35 PM 62.6 °F - 48.2 °F 59% 30.20 in 10.0 mi NNE 9.2 mph - N/A   Scattered Clouds
3:55 PM 62.6 °F - 48.2 °F 59% 30.20 in 10.0 mi North 9.2 mph 16.1 mph N/A   Clear
4:15 PM 62.6 °F - 48.2 °F 59% 30.20 in 10.0 mi NNE 5.8 mph - N/A   Clear
4:35 PM 62.6 °F - 46.4 °F 55% 30.20 in 10.0 mi North 8.1 mph - N/A   Clear
4:55 PM 60.8 °F - 46.4 °F 59% 30.20 in 10.0 mi North 6.9 mph - N/A   Clear
5:15 PM 57.2 °F - 46.4 °F 67% 30.21 in 10.0 mi North 5.8 mph - N/A   Clear
5:35 PM 55.4 °F - 50.0 °F 82% 30.21 in 10.0 mi Calm Calm - N/A   Clear
5:55 PM 53.6 °F - 50.0 °F 88% 30.22 in 10.0 mi Calm Calm - N/A   Clear
6:15 PM 50.0 °F - 50.0 °F 100% 30.22 in 10.0 mi NE 3.5 mph - N/A   Clear
6:35 PM 50.0 °F - 48.2 °F 94% 30.22 in 10.0 mi Calm Calm - N/A   Clear
6:55 PM 50.0 °F - 48.2 °F 94% 30.22 in 10.0 mi NNE 3.5 mph - N/A   Clear
7:15 PM 48.2 °F - 48.2 °F 100% 30.22 in 10.0 mi NE 4.6 mph - N/A   Clear
7:35 PM 48.2 °F - 48.2 °F 100% 30.22 in 10.0 mi Calm Calm - N/A   Clear
7:55 PM 46.4 °F - 46.4 °F 100% 30.21 in 10.0 mi Calm Calm - N/A   Clear
8:15 PM 48.2 °F - 48.2 °F 100% 30.21 in 10.0 mi Calm Calm - N/A   Clear
8:35 PM 48.2 °F - 48.2 °F 100% 30.20 in 10.0 mi Calm Calm - N/A   Clear
8:55 PM 48.2 °F - 46.4 °F 93% 30.21 in 10.0 mi NNE 3.5 mph - N/A   Clear
9:15 PM 48.2 °F - 46.4 °F 93% 30.21 in 10.0 mi Calm Calm - N/A   Clear
9:35 PM 46.4 °F - 46.4 °F 100% 30.21 in 10.0 mi Calm Calm - N/A   Clear
9:55 PM 46.4 °F - 46.4 °F 100% 30.21 in 10.0 mi Calm Calm - N/A   Clear
10:15 PM 44.6 °F - 44.6 °F 100% 30.20 in 10.0 mi Calm Calm - N/A   Clear
10:35 PM 44.6 °F - 44.6 °F 100% 30.20 in 10.0 mi Calm Calm - N/A   Clear
10:55 PM 44.6 °F - 44.6 °F 100% 30.19 in 10.0 mi Calm Calm - N/A   Clear
11:15 PM 44.6 °F 43.1 °F 44.6 °F 100% 30.20 in 10.0 mi NNE 3.5 mph - N/A   Clear
11:55 PM 46.4 °F 43.5 °F 44.6 °F 93% 30.19 in 10.0 mi NNE 5.8 mph - N/A   Clear